THORAD AGENA D DEB

Satellite information

Favourite Embed

Satellite Type and Status

DEBRISIN ORBIT

Key statistics

Satellite THORAD AGENA D DEB at a glance.

Uptime

20179

Days in orbit

Revolutions

≈ 14.0

Per day

Orbit

SSO

Sun Synchronous Orbit

Inclination

100.0

Latest

Satellite identification and parameters

Extended collection of information and parameters for THORAD AGENA D DEB.

Object identification

Identified? True

Debris? True

Object name: THORAD AGENA D DEB

International designator: 1970-025CN

Object number (NORAD): 4739

Object ID (CCSDS): 4739

Country: UNITED STATES OF AMERICA (US)

Current information (Y/N): Y

RCS size: SMALL

Orbital parameters

Period: 103.069 minutes

Inclination: 99.964 deg

SMA: 7281.926 km

Apoapsis: 904.159 km

Periapsis: 903.422 km

RAAN: 23.0863 deg

Eccentricy: 0.0000506

Argument of periapsis: 293.3317 deg

Mean anomaly: 83.0291 deg

Mean motion: 13.97119028 rev/day

Mean motion (dot): 0.00001552 rev/day2

B* drag term: 0.0011471 1/REarth

Two-line elements (TLE)

Creation date: July 6, 2025, 6:05 p.m.

Reference frame: TEME

Reference center: EARTH

Epoch: July 6, 2025, 11:21 a.m. UTC

TLE line 0: 0 THORAD AGENA D DEB

TLE line 1: 1 04739U 70025CN 25187.47345837 .00001552 00000-0 11471-2 0 9990

TLE line 2: 2 04739 99.9640 23.0863 0000506 293.3317 83.0291 13.97119028765870

Live tracking on map

Real-time ground track for satellite THORAD AGENA D DEB.

In-orbit conjunctions

A list of the most updated potential collisions computed for object THORAD AGENA D DEB.

Target Orbit TCA Probability of collision Miss distance Type
GGSE 5 LEO 2024-12-23 23:02:57 0.0005251601 303.0 (m) PAYLOAD
DELTA 1 DEB SSO 2024-11-23 16:11:31 0.0001263813 218.0 (m) DEBRIS
THOR ABLESTAR DEB LEO 2024-11-12 13:27:35 0.0003660656 367.0 (m) DEBRIS
CZ-6A DEB SSO 2024-08-18 16:18:33 0.0001254589 589.0 (m) DEBRIS

Associated space launch

Meteorological research and development satellite

THORAD AGENA D DEB was lifted into orbit during the mission ‘Thorad SLV-2G Agena D | Nimbus 4’, on board a Thorad SLV-2G Agena D space rocket.

The launch took place on April 8, 1970, 8:17 a.m. from Space Launch Complex 2E.

For more information about the launch, click the button.

Launch to space Thorad SLV-2G Agena D | Nimbus 4
Thorad SLV-2G Agena D | Nimbus 4

Agency: N/A

Status: Launch Successful

Launch date: April 8, 1970, 8:17 a.m. UTC

Rocket: Thorad SLV-2G Agena D

Launch pad: Space Launch Complex 2E

Location: Vandenberg SFB, CA, USA

...

Latest news about this satellite

There are no fresh news available about this satellite. Check back as we update our databases every day.


Newsletter sign-up

Weekly statistics, charts and insights to help you stay on top of the space industry.